This is the latest recevied weather packets stored in our database for station/object KC3UTO. If no packets are shown the sender has not sent any weather packets the latest 10 day(s).
| Time | Temp. | Humidity | Pressure | Rain* | Wind** | Luminosity | Snow |
|---|---|---|---|---|---|---|---|
| 1777900470 | 15° C | 46% | 1013.3 hPa | 0 mm | - | 510 W/m² | - |
| 1777900167 | 15° C | 46% | 1013.3 hPa | 0 mm | - | 490 W/m² | - |
| 1777899863 | 14.44° C | 48% | 1013.5 hPa | 0 mm | - | 474 W/m² | - |
| 1777899560 | 14.44° C | 49% | 1013.5 hPa | 0 mm | - | 456 W/m² | - |
| 1777899258 | 13.33° C | 49% | 1013.4 hPa | 0 mm | - | 442 W/m² | - |
| 1777898955 | 13.33° C | 49% | 1013.4 hPa | 0 mm | - | 424 W/m² | - |
| 1777898652 | 13.33° C | 47% | 1013.6 hPa | 0 mm | - | 406 W/m² | - |
| 1777898349 | 12.78° C | 49% | 1013.4 hPa | 0 mm | - | 388 W/m² | - |
| 1777898047 | 12.22° C | 50% | 1013.6 hPa | 0 mm | - | 367 W/m² | - |
| 1777897742 | 11.67° C | 51% | 1013.6 hPa | 0 mm | - | 352 W/m² | - |
| 1777897439 | 11.67° C | 49% | 1013.5 hPa | 0 mm | - | 334 W/m² | - |
| 1777897135 | 11.67° C | 49% | 1013.7 hPa | 0 mm | - | 321 W/m² | - |
| 1777896832 | 11.11° C | 54% | 1013.9 hPa | 0 mm | - | 307 W/m² | - |
| 1777896529 | 10.56° C | 56% | 1013.8 hPa | 0 mm | - | 260 W/m² | - |
| 1777896226 | 10° C | 56% | 1013.6 hPa | 0 mm | - | 164 W/m² | - |
| 1777895924 | 8.89° C | 62% | 1013.7 hPa | 0 mm | - | 202 W/m² | - |
| 1777895621 | 7.78° C | 70% | 1013.7 hPa | 0 mm | - | 125 W/m² | - |
| 1777895318 | 6.67° C | 72% | 1013.9 hPa | 0 mm | - | 81 W/m² | - |
| 1777895016 | 6.67° C | 73% | 1013.6 hPa | 0 mm | - | 55 W/m² | - |
| 1777894713 | 6.11° C | 75% | 1013.7 hPa | 0 mm | - | 55 W/m² | - |
| 1777894410 | 5.56° C | 78% | 1013.8 hPa | 0 mm | - | 69 W/m² | - |
| 1777894108 | 5° C | 80% | 1013.9 hPa | 0 mm | - | 54 W/m² | - |
| 1777893805 | 4.44° C | 82% | 1013.8 hPa | 0 mm | - | 46 W/m² | - |
| 1777893501 | 3.89° C | 83% | 1013.8 hPa | 0 mm | - | 45 W/m² | - |
| 1777893197 | 3.89° C | 85% | 1013.9 hPa | 0 mm | - | 42 W/m² | - |
* Rain latest hour (hover to see other rain measurements)
** Current wind speed in m/s (hover to see current wind gust speed)